This is the latest recevied weather packets stored in our database for station/object N7WSS. If no packets are shown the sender has not sent any weather packets the latest 10 day(s).
| Time | Temp. | Humidity | Pressure | Rain* | Wind** | Luminosity | Snow |
|---|---|---|---|---|---|---|---|
| 1787843119 | 31.67° C | 42% | 1016 hPa | 0 mm | - | - | - |
| 1787842819 | 31.67° C | 43% | 1016.2 hPa | 0 mm | - | - | - |
| 1787842519 | 31.11° C | 44% | 1016.3 hPa | 0 mm | - | - | - |
| 1787842218 | 30.56° C | 44% | 1016.3 hPa | 0 mm | - | - | - |
| 1787841913 | 30.56° C | 44% | 1016.2 hPa | 0 mm | - | - | - |
| 1787841609 | 30.56° C | 44% | 1016.3 hPa | 0 mm | - | - | - |
| 1787841308 | 30.56° C | 43% | 1016.4 hPa | 0 mm | - | - | - |
| 1787841003 | 30.56° C | 43% | 1016.3 hPa | 0 mm | - | - | - |
| 1787840698 | 30.56° C | 43% | 1016.2 hPa | 0 mm | - | - | - |
| 1787840393 | 30° C | 43% | 1016.3 hPa | 0 mm | - | - | - |
| 1787840089 | 30° C | 43% | 1016.1 hPa | 0 mm | - | - | - |
| 1787839783 | 29.44° C | 43% | 1016.1 hPa | 0 mm | - | - | - |
| 1787839483 | 28.89° C | 44% | 1016.1 hPa | 0 mm | - | - | - |
| 1787839182 | 27.78° C | 45% | 1016.2 hPa | 0 mm | - | - | - |
| 1787838877 | 27.22° C | 47% | 1016.1 hPa | 0 mm | - | - | - |
| 1787838576 | 26.67° C | 47% | 1015.7 hPa | 0 mm | - | - | - |
| 1787838276 | 26.11° C | 49% | 1015.7 hPa | 0 mm | - | - | - |
| 1787837974 | 26.67° C | 49% | 1015.5 hPa | 0 mm | - | - | - |
| 1787837674 | 26.67° C | 49% | 1015.3 hPa | 0 mm | - | - | - |
| 1787837369 | 26.11° C | 50% | 1015.1 hPa | 0 mm | - | - | - |
| 1787837065 | 26.11° C | 50% | 1015 hPa | 0 mm | - | - | - |
| 1787836763 | 25.56° C | 50% | 1014.8 hPa | 0 mm | - | - | - |
| 1787836459 | 25° C | 52% | 1014.9 hPa | 0 mm | - | - | - |
| 1787836154 | 23.89° C | 55% | 1014.5 hPa | 0 mm | - | - | - |
| 1787835850 | 23.89° C | 55% | 1014.4 hPa | 0 mm | - | - | - |
* Rain latest hour (hover to see other rain measurements)
** Current wind speed in m/s (hover to see current wind gust speed)